Location: Bakov nad Jizerou
(50.4784°N, 14.9394°E)
Time: 08:42:10
(UTC+00:00)

Landsat 7 - Pass Details

Date: 16 June 2021
Orbit: 701 x 703 km, 98.0° (Epoch: 04 August)

Event Time Altitude Azimuth Distance (km) Brightness Sun altitude
Rises 19:53:39 0° 175° (S) 3,081 6.6 -5.4°
Reaches altitude 10° 19:55:56 10° 179° (S) 2,167 5.9 -5.6°
Maximum altitude 20:00:37 59° 259° (W) 817 4.4 -6.1°
Drops below altitude 10° 20:05:21 10° 339° (NNW) 2,184 7.8 -6.6°
Sets 20:07:39 0° 344° (NNW) 3,107 8.6 -6.8°
